map of FOK home
FOK - Airport
Location
City:  Westhampton Beach, New York, United States
Name:Francis S Gabreski Airport
ICAO:KFOK
IATA:FOK
FAA LID:FOK

Details
Type:Airport (Airfield)
Use:Public/Civil, International (customs landing rights)
Latitude:4050'37"N (40.843667)
Longitude:7237'54"W (-72.631777)
Datum:WGS 1984
Elevation:66 ft (20 m)
Variation:13.57W (WMM2015 magnetic declination)
0.04 annual change
Runways:3
Longest:9001 × 150 ft (2744 × 45.5 m), paved

Time
Time Zone:UTC-5 (DST-4)
Local Time:

Weather
METAR:KFOK 190453Z AUTO 02006KT 10SM BKN010 BKN017 OVC032 23/21 A2985 RMK AO2 CIG 007V013 SLP109 T02280211 402830217

Related Locations
Nearby:
Farthest:YAUG: 11816 mi / 19017 km
Augusta [Augusta Airport], WA, AU

Find:

   beyond  
but within

Other Information
Maps:
NOTAMs:
Links:
Sources:

  
  • flag of United States
  • flag of New York
  

Airport Diagram

Airport diagram for FOK

Airport diagram PDF

Sectional Chart

Flight Planning
at skyvector.com

Satellite Image

Google Maps Satellite view

 

Copyright © 2004-2018 Karl L. Swartz. All rights reserved.
The Great Circle Mapper name and logo are trademarks of the Great Circle Mapper.
All other trademarks mentioned herein belong to their respective owners.
Please see credits for attibutions and further copyright information.

  Follow gcmap on Facebook Follow gcmap on Twitter Follow gcmap on Google+ GCmap on LinkedIn

hCard Microformat

Geo Microformat